sat.trackr.live / text

‹ back to catalog

STARLINK-2494

NORAD 48487 · 2021-040BM

PAYLOAD ACTIVE UNKNOWN

§ Identity

Operator
Country
US
Launch date
2021-05-09
Launch site
AFETR
Launch vehicle
Mass (kg)
RCS (m²)

Purposes: comms

External: N2YO · Heavens-Above · Gunter

§ Orbital elements

Epoch: 2026-09-19T22:41:19.544640Z

Period
94.01 min
Inclination
53.1620°
Eccentricity
0.0001461
Mean motion
15.31694711 rev/d
Perigee alt
469.8 km
Apogee alt
471.8 km
Semi-major
6,848.9 km
B*
-3.1859e-5
RAAN
10.0083°
Arg perigee
74.3011°
Mean anomaly
285.8152°
Rev number
29,623

§ Raw data

STARLINK-24941 48487U 21040BM  26262.94536510 -.00001354  00000+0 -31859-4 0  99932 48487  53.1620  10.0083 0001461  74.3011 285.8152 15.31694711296231

JSON: /api/v1/satellites/48487 · /tle

For live sub-satellite position, see the globe view (requires WebGL).

§ Visibility from observer

Set your observer location to see the next 7 days of passes ≥ 10°. The values pass through the URL so the page stays shareable.

No JS? Fill the form by hand. The geolocation button needs JavaScript.